Hourly Data Report for March 08, 2017

All times are specified in Local Standard Time (LST). Add 1 hour to adjust for Daylight Saving Time where and when it is observed.

TORONTO CITY
ONTARIO

43°40'00.000" N
79°24'00.000" W
112.50 m
6158355
71508
XTO

Download Data

Hourly Data (March 2017)
Hourly Data Report for March 8, 2017
TIME Temp Definition
°C
Dew Point Definition
°C
Rel Hum Definition
%
Wind Dir Definition
10's deg

Wind Spd Definition
km/h
Visibility Definition
km
Stn Press Definition
kPa
Hmdx Definition


Wind Chill Definition


Weather Definition


00:00 7.5 -0.7 56 LegendMM LegendMM   99.76     LegendNANA
01:00 7.1 -1.3 55 LegendMM LegendMM   99.79     LegendNANA
02:00 6.4 -1.8 56 LegendMM LegendMM   99.80     LegendNANA
03:00 5.4 -2.2 58 LegendMM LegendMM   99.81     LegendNANA
04:00 4.6 -2.5 60 LegendMM LegendMM   99.80     LegendNANA
05:00 3.9 -1.7 67 LegendMM LegendMM   99.77     LegendNANA
06:00 4.0 -2.5 62 LegendMM LegendMM   99.73     LegendNANA
07:00 4.1 -1.6 67 LegendMM LegendMM   99.69     LegendNANA
08:00 4.9 -1.2 65 LegendMM LegendMM   99.61     LegendNANA
09:00 6.5 -1.1 58 LegendMM LegendMM   99.47     LegendNANA
10:00 7.7 -0.4 57 LegendMM LegendMM   99.37     LegendNANA
11:00 9.2 -6.5 32 LegendMM LegendMM   99.29     LegendNANA
12:00 10.6 -5.4 32 LegendMM LegendMM   99.17     LegendNANA
13:00 9.9 -5.4 33 LegendMM LegendMM   99.11     LegendNANA
14:00 9.8 -6.8 31 LegendMM LegendMM   99.05     LegendNANA
15:00 9.8 -10.0 24 LegendMM LegendMM   99.04     LegendNANA
16:00 9.3 -7.8 29 LegendMM LegendMM   99.12     LegendNANA
17:00 8.1 -8.5 30 LegendMM LegendMM   99.22     LegendNANA
18:00 6.8 -7.4 35 LegendMM LegendMM   99.34     LegendNANA
19:00 5.5 -6.1 43 LegendMM LegendMM   99.43     LegendNANA
20:00 5.2 -6.2 44 LegendMM LegendMM   99.47     LegendNANA
21:00 5.1 -6.1 44 LegendMM LegendMM   99.57     LegendNANA
22:00 4.3 -9.1 37 LegendMM LegendMM   99.64     LegendNANA
23:00 3.6 -9.4 38 LegendMM LegendMM   99.69     LegendNANA

Notes on Data Quality.

Legend

  • E = Estimated
  • M = Missing
  • NA = Not Available
Date modified: